This demonstration page uses our WeatherBlox Daily Observations layout. Learn more.

Hourly Observations for November 15, 2018

Temp ( °F °C ) Dew Point ( °F °C ) Humidity (%) Winds ( mph kmh ) Pressure ( in mb ) Visibility ( mi km ) Precip ( " mm )
12:15 am 00:15 Clear 33 0.5 31 -0.5 93 93 S 9 15 30.15 1021 10 16.09344 0 0
12:35 am 00:35 Clear 32 0.1 31 -0.8 94 94 S 6 9 30.12 1020 10 16.09344 0 0
12:55 am 00:55 Clear 32 -0.2 30 -1.1 94 94 S 9 15 30.15 1021 10 16.09344 0 0
1:15 am 01:15 Clear 32 0 31 -0.8 94 94 S 9 15 30.12 1020 10 16.09344 0 0
1:35 am 01:35 Clear 32 0 30 -0.9 94 94 S 8 13 30.09 1019 10 16.09344 0 0
1:55 am 01:55 Clear 32 0 31 -0.8 94 94 SSW 9 15 30.09 1019 10 16.09344 0 0
2:15 am 02:15 Clear 33 0.3 31 -0.5 94 94 SSW 7 11 30.09 1019 10 16.09344 0 0
2:35 am 02:35 Clear 32 0 30 -1 93 93 SSW 8 13 30.09 1019 10 16.09344 0 0
2:55 am 02:55 Clear 32 -0.2 30 -1 94 94 SW 6 9 30.09 1019 10 16.09344 0 0
3:15 am 03:15 Clear 31 -0.7 30 -1.2 96 96 SW 7 11 30.12 1020 10 16.09344 0 0
3:35 am 03:35 Clear 31 -0.8 29 -1.4 96 96 SW 6 9 30.09 1019 10 16.09344 0 0
3:55 am 03:55 Clear 30 -0.9 29 -1.5 96 96 SSW 3 6 30.09 1019 10 16.09344 0 0
4:15 am 04:15 Clear 29 -1.7 28 -2 98 98 SSW 5 7 30.09 1019 10 16.09344 0 0
4:35 am 04:35 Clear 29 -1.8 28 -2.2 97 97 SW 5 7 30.09 1019 10 16.09344 0 0
4:55 am 04:55 Clear 28 -2 28 -2.3 98 98 SW 5 7 30.09 1019 10 16.09344 0 0
5:15 am 05:15 Clear 28 -2 28 -2.2 99 99 WSW 3 6 30.06 1018 10 16.09344 0 0
5:35 am 05:35 Clear 30 -1.2 29 -1.6 97 97 W 6 9 30.06 1018 10 16.09344 0 0
5:55 am 05:55 Clear 30 -1.2 28 -2 94 94 W 5 7 30.06 1018 10 16.09344 0 0
6:15 am 06:15 Clear 31 -0.7 28 -2 91 91 W 7 11 30.03 1017 10 16.09344 0 0
6:35 am 06:35 Clear 30 -1 28 -2.2 92 92 WNW 6 9 30.09 1019 10 16.09344 0 0
6:55 am 06:55 Clear 31 -0.6 28 -2.4 88 88 WNW 10 17 30.06 1018 10 16.09344 0 0
7:15 am 07:15 Clear 31 -0.6 27 -2.6 87 87 WNW 8 13 30.06 1018 10 16.09344 0 0
7:35 am 07:35 Sunny 32 0.1 28 -2.1 85 85 WNW 12 19 30.06 1018 10 16.09344 0 0
7:55 am 07:55 Sunny 33 0.5 28 -2 84 84 WNW 10 17 30.06 1018 10 16.09344 0 0
8:15 am 08:15 Sunny 33 0.7 30 -1.2 87 87 NW 8 13 30.06 1018 10 16.09344 0 0
8:35 am 08:35 Sunny 35 1.9 31 -0.6 84 84 NW 9 15 30.06 1018 10 16.09344 0 0
8:55 am 08:55 Sunny 37 3 32 -0.1 80 80 NW 8 13 30.03 1017 10 16.09344 0 0
9:15 am 09:15 Sunny 39 4.1 32 0 75 75 NW 7 11 30.03 1017 10 16.09344 0 0
9:35 am 09:35 Sunny 41 5.2 32 0 69 69 NNW 7 11 30.03 1017 10 16.09344 0 0
9:55 am 09:55 Sunny 44 6.4 33 0.5 66 66 NW 6 9 30.03 1017 10 16.09344 0 0
10:15 am 10:15 Sunny 46 8 35 1.4 63 63 NW 7 11 30.03 1017 10 16.09344 0 0
10:35 am 10:35 Sunny 47 8.6 35 1.4 61 61 NW 9 15 30.03 1017 10 16.09344 0 0
10:55 am 10:55 Sunny 49 9.6 35 1.6 58 58 NNW 13 20 30 1016 10 16.09344 0 0
11:15 am 11:15 Sunny 51 10.7 35 1.8 54 54 NNW 12 19 30 1016 10 16.09344 0 0
11:35 am 11:35 Sunny 54 12.3 35 1.6 48 48 N 13 20 30 1016 10 16.09344 0 0
11:55 am 11:55 Sunny 57 13.9 35 1.5 43 43 N 14 22 29.97 1015 10 16.09344 0 0
12:15 pm 12:15 Sunny 59 14.8 33 0.5 38 38 N 15 24 29.97 1015 10 16.09344 0 0
12:35 pm 12:35 Sunny 60 15.5 33 0.3 36 36 N 17 28 29.97 1015 10 16.09344 0 0
12:55 pm 12:55 Sunny 60 15.5 33 0.3 36 36 N 18 30 29.97 1015 10 16.09344 0 0
1:15 pm 13:15 Sunny 60 15.8 33 0.6 36 36 N 24 39 29.97 1015 10 16.09344 0 0
1:35 pm 13:35 Sunny 61 16.2 34 0.9 36 36 N 22 35 29.94 1014 10 16.09344 0 0
1:55 pm 13:55 Sunny 60 15.7 33 0.6 36 36 N 20 31 29.97 1015 10 16.09344 0 0
2:15 pm 14:15 Sunny 61 16 33 0.5 35 35 N 21 33 29.94 1014 10 16.09344 0 0
2:35 pm 14:35 Sunny 60 15.5 33 0.5 36 36 N 15 24 29.97 1015 10 16.09344 0 0
2:55 pm 14:55 Sunny 61 16 33 0.8 36 36 N 15 24 29.94 1014 10 16.09344 0 0
3:15 pm 15:15 Sunny 60 15.8 33 0.3 35 35 N 14 22 29.97 1015 10 16.09344 0 0
3:35 pm 15:35 Sunny 60 15.5 32 0 35 35 N 14 22 29.97 1015 10 16.09344 0 0
3:55 pm 15:55 Sunny 59 15 32 0 36 36 N 10 17 30 1016 10 16.09344 0 0
4:15 pm 16:15 Sunny 58 14.3 32 -0.2 37 37 N 10 17 30 1016 10 16.09344 0 0
4:35 pm 16:35 Sunny 56 13.6 31 -0.5 38 38 N 9 15 30 1016 10 16.09344 0 0
4:55 pm 16:55 Sunny 54 12.1 31 -0.6 42 42 N 8 13 30.03 1017 10 16.09344 0 0
5:15 pm 17:15 Sunny 51 10.8 30 -1.1 44 44 N 8 13 30.03 1017 10 16.09344 0 0
5:35 pm 17:35 Clear 49 9.3 30 -1.3 48 48 NNW 6 9 30.06 1018 10 16.09344 0 0
5:55 pm 17:55 Clear 46 8 30 -1.3 52 52 NNW 5 7 30.09 1019 10 16.09344 0 0
6:15 pm 18:15 Clear 44 6.5 29 -1.5 57 57 NNW 6 9 30.09 1019 10 16.09344 0 0
6:35 pm 18:35 Clear 42 5.6 29 -1.5 61 61 NNW 8 13 30.12 1020 10 16.09344 0 0
6:55 pm 18:55 Clear 45 7.1 29 -1.7 54 54 NNW 8 13 30.09 1019 10 16.09344 0 0
7:15 pm 19:15 Clear 43 6.3 28 -2 56 56 NW 6 9 30.12 1020 10 16.09344 0 0
7:35 pm 19:35 Clear 42 5.8 28 -2.3 56 56 NW 5 7 30.12 1020 10 16.09344 0 0
7:55 pm 19:55 Clear 41 5.1 28 -2.5 58 58 WNW 5 7 30.15 1021 10 16.09344 0 0
8:15 pm 20:15 Clear 40 4.4 27 -2.6 61 61 WNW 6 9 30.15 1021 10 16.09344 0 0
8:35 pm 20:35 Clear 39 3.8 27 -2.7 63 63 NW 8 13 30.15 1021 10 16.09344 0 0
8:55 pm 20:55 Clear 37 2.9 27 -2.8 66 66 NW 8 13 30.18 1022 10 16.09344 0 0
9:15 pm 21:15 Clear 37 3 27 -3 65 65 NW 8 13 30.18 1022 10 16.09344 0 0
9:35 pm 21:35 Clear 36 2 26 -3.1 69 69 NW 7 11 30.18 1022 10 16.09344 0 0
9:55 pm 21:55 Clear 36 2 27 -3 70 70 NW 6 9 30.18 1022 10 16.09344 0 0
10:15 pm 22:15 Clear 35 1.8 27 -3 71 71 NW 7 11 30.18 1022 10 16.09344 0 0
10:35 pm 22:35 Clear 35 1.7 26 -3.2 70 70 NW 7 11 30.18 1022 10 16.09344 0 0
10:55 pm 22:55 Clear 35 1.6 26 -3.3 70 70 NW 7 11 30.18 1022 10 16.09344 0 0
11:15 pm 23:15 Clear 35 1.5 26 -3.5 70 70 NW 6 9 30.18 1022 10 16.09344 0 0
11:35 pm 23:35 Clear 34 0.9 26 -3.5 73 73 NW 7 11 30.18 1022 10 16.09344 0 0
11:55 pm 23:55 Clear 32 -0.1 26 -3.6 78 78 NW 5 7 30.21 1023 10 16.09344 0 0

Powered by AerisWeather